User: anonymous   Login
Location: Unspecified
(0.0000°N, 0.0000°E)
Time: 20:47:06
(UTC+00:00)
Language:

PLEIADES 1B - Orbit

View from above orbital plane
View from above orbital plane
View from above satellite
View from above satellite

Ground track
Ground track

The orbit data is extracted from the following two-line orbital elements,

1 39019U 12068A   16243.43825705  .00000022  00000-0  14528-4 0  9997
2 39019  98.1978 316.8213 0001370  81.2775 278.8579 14.58545358199330
Epoch (UTC): 30 August 2016 10:31:05
Eccentricity: 0.0001370
inclination: 98.1978°
perigee height: 697 km
apogee height: 699 km
right ascension of ascending node: 316.8213°
argument of perigee: 81.2775°
revolutions per day: 14.58545358
mean anomaly at epoch: 278.8579°
orbit number at epoch: 19933

The dashed part of the orbit path shows where the satellite is in the earth's shadow,  

DLR